Weather History for Corpus Christi NAS, TX

Change the Weather History Date:

Sunday, September 9, 2012

  Actual Average Record
Temperature  
Mean Temperature 82 °F -  
Max Temperature 89 °F 88 °F 93 °F (1999)
Min Temperature 77 °F 74 °F 70 °F (2011)
Cooling Degree Days 18    
Growing Degree Days 32 (Base 50)    
Moisture  
Dew Point 64 °F    
Average Humidity 56    
Maximum Humidity 76    
Minimum Humidity 34    
Precipitation  
Precipitation 0.00 in - - ()
Sea Level Pressure  
Sea Level Pressure 30.03 in    
Wind  
Wind Speed 16 mph (ENE)    
Max Wind Speed 21 mph    
Max Gust Speed -    
Visibility 10 miles    
Events      
Averages and records for this station are not official NWS values.
T = Trace of Precipitation, MM = Missing Value Source: NWS Daily Summary

Daily Weather History Graph

Daily Weather History Graph

Search for Another Location

Airport:

Trip Planner

Search our weather history database for the weather conditions in past years. The results will help you decide how hot, cold, wet, or windy it might be!

Date:

Astronomy

Sep. 09, 2012 Rise Set
Actual Time 7:11 AM CDT 7:40 PM CDT
Civil Twilight 6:48 AM CDT 8:03 PM CDT
Nautical Twilight 6:20 AM CDT 8:31 PM CDT
Astronomical Twilight 5:52 AM CDT 8:59 PM CDT
Moon 1:05 AM CDT (9/9) 3:04 PM CDT (9/9)
Length of Visible Light 13h 15m
Length of Day
12h 28m
Last Quarter, 39% of the Moon is Illuminated
Sep 9
Last Quarter
Sep 15
New
Sep 22
First Quarter
Sep 29
Full
Oct 8
Last Quarter

Hourly Weather History & Observations

Time (CDT) Temp. Heat Index Dew Point Humidity Pressure Visibility Wind Dir Wind Speed Gust Speed Precip Events Conditions
12:56 AM 82.9 °F 85.0 °F 66.0 °F 56% 29.99 in 10.0 mi NNE 20.7 mph - N/A   Clear
1:56 AM 82.0 °F 85.5 °F 69.1 °F 65% 29.99 in 10.0 mi NNE 16.1 mph - N/A   Clear
2:56 AM 81.0 °F 83.3 °F 66.9 °F 62% 29.99 in 10.0 mi NE 18.4 mph - N/A   Clear
3:56 AM 81.0 °F 83.8 °F 68.0 °F 65% 29.99 in 10.0 mi NE 16.1 mph - N/A   Clear
4:56 AM 80.1 °F 82.3 °F 66.9 °F 64% 30.01 in 10.0 mi NNE 16.1 mph - N/A   Clear
5:56 AM 79.0 °F - 68.0 °F 69% 30.02 in 10.0 mi NE 13.8 mph - N/A   Clear
6:56 AM 78.1 °F - 68.0 °F 71% 30.03 in 10.0 mi NNE 12.7 mph - N/A   Clear
7:56 AM 77.0 °F - 69.1 °F 76% 30.05 in 10.0 mi North 13.8 mph - N/A   Clear
8:56 AM 77.0 °F - 66.9 °F 71% 30.06 in 10.0 mi NNE 16.1 mph - N/A   Clear
9:56 AM 81.0 °F 83.0 °F 66.0 °F 60% 30.08 in 10.0 mi NNE 19.6 mph - N/A   Clear
10:56 AM 84.0 °F 84.9 °F 63.0 °F 49% 30.08 in 10.0 mi NE 19.6 mph - N/A   Clear
11:56 AM 86.0 °F 86.8 °F 63.0 °F 46% 30.08 in 10.0 mi NE 18.4 mph - N/A   Clear
12:56 PM 87.1 °F 86.1 °F 57.9 °F 37% 30.07 in 10.0 mi NE 15.0 mph - N/A   Clear
1:56 PM 88.0 °F 86.5 °F 55.9 °F 34% 30.06 in 10.0 mi NE 12.7 mph - N/A   Clear
2:56 PM 86.0 °F 85.7 °F 60.1 °F 41% 30.04 in 10.0 mi East 13.8 mph - N/A   Mostly Cloudy
3:56 PM 84.9 °F 84.4 °F 59.0 °F 41% 30.01 in 10.0 mi East 15.0 mph - N/A   Mostly Cloudy
4:56 PM 84.9 °F 84.4 °F 59.0 °F 41% 30.00 in 10.0 mi ESE 13.8 mph - N/A   Mostly Cloudy
5:56 PM 82.9 °F 83.3 °F 61.0 °F 47% 30.00 in 10.0 mi ESE 12.7 mph - N/A   Mostly Cloudy
6:56 PM 81.0 °F 81.9 °F 62.1 °F 52% 30.00 in 10.0 mi ESE 11.5 mph - N/A   Mostly Cloudy
7:56 PM 80.1 °F 81.2 °F 62.1 °F 54% 30.00 in 10.0 mi ESE 11.5 mph - N/A   Mostly Cloudy
8:56 PM 80.1 °F 81.5 °F 63.0 °F 56% 30.01 in 10.0 mi ESE 10.4 mph - N/A   Mostly Cloudy
9:56 PM 79.0 °F - 64.0 °F 60% 30.03 in 10.0 mi East 8.1 mph - N/A   Mostly Cloudy
10:56 PM 79.0 °F - 64.9 °F 62% 30.04 in 10.0 mi East 9.2 mph - N/A   Clear
11:56 PM 78.1 °F - 64.9 °F 64% 30.04 in 10.0 mi East 8.1 mph - N/A   Clear